DW9033 Weather Reports


time (UTC)temp
F
wind
direction
speed
knots
gust
knots
rain 1hr
in
rain 24hr
in
rain mn
in
humidity
%
barometer
mb
20260509013039 60 121 0.0 0.0 0.00 0.00 0.00 75 1013.4
20260509011530 61 121 0.0 0.0 0.00 0.00 0.00 73 1013.4
20260509010029 62 121 0.0 0.9 0.00 0.00 0.00 70 1013.4
20260509004538 62 121 0.0 0.0 0.00 0.00 0.00 67 1013.2
20260509003029 63 170 0.0 0.0 0.00 0.00 0.00 66 1013.3
20260509001528 64 161 0.0 0.9 0.00 0.00 0.00 65 1013.2
20260509000027 64 158 0.0 1.7 0.00 0.00 0.00 64 1013.0
20260508234509 65 146 0.0 1.7 0.00 0.00 0.00 62 1012.8
20260508233009 66 186 0.0 0.9 0.00 0.00 0.00 60 1013.1
20260508231509 67 166 0.0 2.6 0.00 0.00 0.00 58 1013.0
20260508230008 67 163 0.0 0.9 0.00 0.00 0.00 57 1012.8
20260508224508 67 123 0.0 3.5 0.00 0.00 0.00 56 1012.8
20260508223019 68 279 0.0 3.5 0.00 0.00 0.00 55 1013.1
20260508221508 69 263 0.0 3.5 0.00 0.00 0.00 53 1013.0
20260508220018 69 132 0.9 3.5 0.00 0.00 0.00 51 1012.7
20260508213011 70 246 0.0 3.5 0.00 0.00 0.00 50 1012.9
20260508211557 71 118 1.7 4.3 0.00 0.00 0.00 49 1012.9
20260508210052 70 97 0.9 6.1 0.00 0.00 0.00 49 1012.7
20260508204601 71 166 1.7 4.3 0.00 0.00 0.00 48 1012.8
20260508203057 71 154 1.7 6.1 0.00 0.00 0.00 47 1012.8
20260508201557 72 157 1.7 4.3 0.00 0.00 0.00 47 1013.2
20260508200100 72 192 2.6 7.0 0.00 0.00 0.00 45 1013.4
20260508194548 71 157 2.6 8.7 0.00 0.00 0.00 46 1013.6
20260508193053 72 186 2.6 7.0 0.00 0.00 0.00 45 1013.8
20260508191544 72 260 0.0 7.8 0.00 0.00 0.00 48 1013.9
20260508190033 71 86 2.6 7.8 0.00 0.00 0.00 47 1014.3
20260508184523 71 107 1.7 7.0 0.00 0.00 0.00 45 1014.5
20260508183004 70 101 0.9 6.1 0.00 0.00 0.00 47 1014.8
20260508181508 69 105 0.0 6.1 0.00 0.00 0.00 47 1015.0
20260508180108 70 111 0.9 5.2 0.00 0.00 0.00 45 1015.2
20260508174552 69 125 0.9 4.3 0.00 0.00 0.00 49 1015.3
20260508173051 69 154 0.0 4.3 0.00 0.00 0.00 46 1015.6
20260508171549 70 302 0.9 7.0 0.00 0.00 0.00 45 1015.6
20260508170049 70 133 0.9 4.3 0.00 0.00 0.00 46 1015.9
20260508164547 69 318 1.7 6.1 0.00 0.00 0.00 48 1016.1
20260508163044 68 90 1.7 7.0 0.00 0.00 0.00 48 1016.4
20260508161545 68 146 1.7 7.8 0.00 0.00 0.00 53 1016.6
20260508160037 67 176 2.6 6.1 0.00 0.00 0.00 51 1016.7
20260508154530 67 125 1.7 6.1 0.00 0.00 0.00 50 1017.0
20260508153026 67 244 0.0 3.5 0.00 0.00 0.00 53 1017.0
20260508151526 66 69 0.9 4.3 0.00 0.00 0.00 53 1017.1
20260508150023 66 296 0.0 5.2 0.00 0.00 0.00 56 1017.0
20260508144521 64 56 0.0 5.2 0.00 0.01 0.00 56 1017.0
20260508143120 65 84 0.9 4.3 0.00 0.01 0.00 56 1017.0
20260508141525 64 63 0.9 4.3 0.00 0.01 0.00 58 1017.2
20260508140006 64 174 0.9 5.2 0.00 0.01 0.00 61 1017.4
20260508134505 64 145 1.7 3.5 0.00 0.11 0.00 59 1017.5
20260508133001 62 29 0.0 3.5 0.00 0.11 0.00 62 1017.5
20260508131607 61 109 0.0 2.6 0.00 0.11 0.00 67 1017.3
20260508130056 61 87 0.0 0.9 0.00 0.11 0.00 68 1017.0
20260508124552 60 69 0.0 0.9 0.00 0.12 0.00 69 1016.9
20260508123050 60 97 0.0 0.0 0.00 0.12 0.00 72 1016.9
20260508121554 58 105 0.0 0.0 0.00 0.12 0.00 75 1016.7
20260508120037 56 74 0.0 0.0 0.00 0.12 0.00 85 1016.5
20260508114529 53 74 0.0 0.0 0.00 0.21 0.00 94 1016.3
20260508113025 49 74 0.0 0.0 0.00 0.21 0.00 94 1016.0
20260508111522 48 74 0.0 0.0 0.00 0.21 0.00 93 1015.6
20260508110020 47 74 0.0 0.0 0.00 0.21 0.00 92 1015.4
20260508104518 47 74 0.0 0.0 0.00 0.32 0.00 91 1015.2
20260508103027 48 74 0.0 0.0 0.00 0.32 0.00 90 1015.0
20260508101518 49 74 0.0 0.0 0.00 0.32 0.00 89 1014.8
20260508100059 49 74 0.0 0.0 0.00 0.32 0.00 88 1014.4
20260508094612 50 105 0.0 0.9 0.00 0.34 0.00 88 1014.3
20260508093056 50 271 0.0 0.9 0.00 0.34 0.00 86 1014.1
20260508091555 51 271 0.0 0.0 0.00 0.34 0.00 85 1014.1
20260508090109 52 271 0.0 0.0 0.00 0.34 0.00 81 1013.9
20260508084553 53 296 0.0 2.6 0.00 0.39 0.00 80 1014.1
20260508083111 52 287 0.0 1.7 0.00 0.39 0.00 83 1013.8
20260508081649 52 256 0.0 1.7 0.00 0.39 0.00 84 1014.0
20260508080037 51 254 0.0 0.0 0.00 0.39 0.00 86 1013.8
20260508074531 50 291 0.0 2.6 0.00 0.57 0.00 91 1013.9
20260508073030 49 221 0.0 0.0 0.00 0.57 0.00 93 1013.6
20260508071529 49 221 0.0 0.0 0.00 0.57 0.00 93 1013.7
20260508070026 49 221 0.0 0.0 0.00 0.57 0.00 93 1013.6
20260508064535 49 221 0.0 0.0 0.00 0.75 0.57 92 1013.3
20260508063025 49 269 0.0 0.0 0.00 0.75 0.57 92 1013.2
20260508061524 49 269 0.0 0.0 0.00 0.75 0.57 91 1013.3
20260508060005 49 269 0.0 0.0 0.00 0.75 0.57 91 1013.3
20260508054505 49 269 0.0 0.0 0.00 0.91 0.57 90 1013.5
20260508053051 50 269 0.0 0.0 0.00 0.91 0.57 89 1013.3
20260508051553 51 269 0.0 0.0 0.00 0.91 0.57 88 1013.3
20260508050045 51 269 0.0 0.0 0.00 0.91 0.57 86 1013.1
20260508044544 52 269 0.0 0.0 0.00 1.00 0.57 88 1012.9
20260508043049 52 269 0.0 0.0 0.00 1.00 0.57 88 1012.9
20260508041542 52 269 0.0 0.0 0.00 1.00 0.57 90 1012.9
20260508040041 53 229 0.0 0.9 0.00 1.00 0.57 90 1012.7
20260508034540 53 229 0.0 0.9 0.00 1.00 0.57 89 1012.9
20260508033027 53 275 0.0 0.0 0.00 1.00 0.57 88 1012.7
20260508031530 53 155 0.0 0.0 0.00 1.00 0.57 88 1012.8
20260508030023 54 155 0.0 0.0 0.00 1.00 0.57 86 1012.4
20260508024523 54 155 0.0 0.0 0.00 1.01 0.57 85 1012.5
20260508023026 55 287 0.0 0.0 0.00 1.01 0.57 83 1012.1
20260508021516 56 287 0.0 0.0 0.00 1.01 0.57 81 1011.8
20260508020009 57 287 0.0 0.9 0.00 1.01 0.57 79 1011.6
20260508014517 58 227 0.0 0.0 0.00 1.20 0.57 80 1011.3